Regional Weather Roundup
Issued by NWS

Home | Current Version | Previous Version | Graphics & Text | Print | Product List | Glossary On
Versions: 1 2 3 4 5 6 7 8 9 10 11 12 13 14 15 16 17 18 19 20 21 22 23 24 25 26 27 28 29 30 31 32 33 34 35 36 37 38 39 40 41 42 43 44 45 46 47 48 49 50
000
ASUS43 KFSD 310202
RWRSD

WEATHER ROUNDUP FOR SOUTH DAKOTA
NATIONAL WEATHER SERVICE SIOUX FALLS SD
900 PM CDT MON MAY 30 2016

NOTE: "FAIR" INDICATES FEW OR NO CLOUDS BELOW 12,000 FEET WITH NO
SIGNIFICANT WEATHER AND/OR OBSTRUCTIONS TO VISIBILITY.


SDZ001>005-009-010-012>017-310300-
NORTHWEST AND NORTH CENTRAL SOUTH DAKOTA

CITY           SKY/WX    TMP DP  RH WIND       PRES   REMARKS
BUFFALO          N/A     55  45  68 NW23      29.92R
FAITH            N/A     56  47  71 NW21G30   29.90R
MOBRIDGE       CLOUDY    60  55  83 NW13      29.78R
$$

SDZ012>016-024>037-041>051-057-063-072>074-310300-
SOUTHWEST AND SOUTH CENTRAL SOUTH DAKOTA

CITY           SKY/WX    TMP DP  RH WIND       PRES   REMARKS
RAPID CTY ARPT LGT RAIN  54  49  83 NW26G40   29.99R
PIERRE         LGT RAIN  60  56  86 NW15      29.81R
CUSTER         LGT RAIN  50  43  77 W10G18    30.07R
ELLSWORTH AFB  LGT RAIN  54  50  87 NW28G33   29.99
PHILIP         PTCLDY    62  55  77 N9        29.87R
PINE RIDGE     CLOUDY    63  48  58 N5        29.93R
WINNER         MOCLDY    68  53  58 W10       29.83R
$$

SDZ004>011-016>023-039-040-310300-
NORTHEAST SOUTH DAKOTA

CITY           SKY/WX    TMP DP  RH WIND       PRES   REMARKS
ABERDEEN       CLOUDY    75  59  57 S7        29.74R
WATERTOWN      CLOUDY    73  55  53 S8        29.78R
BROOKINGS      CLOUDY    75  57  53 SE5       29.78F
SISSETON         N/A     76  54  46 S9        29.75R
$$

SDZ017-020-022-023-036>040-048>070-310300-
SOUTHEAST SOUTH DAKOTA

CITY           SKY/WX    TMP DP  RH WIND       PRES   REMARKS
SIOUX FALLS    CLOUDY    72  58  61 S5        29.77S
HURON          CLOUDY    73  62  68 SE7       29.72S
MITCHELL       CLOUDY    74  64  71 SE8       29.75S
YANKTON        CLOUDY    75  57  53 SE5       29.76R
$$

ABBREVIATIONS USED IN REMARKS
   TC - TEMPERATURE IN CELSIUS
  WCI - WIND CHILL INDEX
   HX - HEAT INDEX
  VSB - VISIBILITY





USA.gov is the U.S. government's official web portal to all federal, state and local government web resources and services.